Flag for Brazil Weather past 2 weeks in Pirassununga, São Paulo, Brazil

Now
63 °F

Clear.


Feels Like: 63 °F
Forecast: 60 / 80 °F
Wind: 9 mph from South

Location: Pirassununga Airport

Current Time: Apr 26, 2015 at 2:08:45 AM

Latest Report: Apr 25, 2015 at 11:00 PM


Visibility: 10 mi

Pressure: 30.15 "Hg

Humidity: 88%

Dew point: 59 °F

Location of PirassunungaLocation

Historic Weather in Pirassununga — Graph

°F

Pirassununga temperature yesterday

Maximum temperature yesterday: 84 °F (at 3:00 PM)
Minimum temperature yesterday: 63 °F (at 11:00 PM)
Average temperature yesterday: 74 °F

Past Weeks' High & Low Weather Summary

 TemperatureHumidityPressure
High91 °F (Apr 18, 2:00 PM)100% (Apr 12, 6:00 AM)30.15 "Hg (Apr 12, 6:00 AM)
Low61 °F (Apr 12, 6:00 AM)38% (Apr 12, 3:00 PM)29.89 "Hg (Apr 20, 3:00 PM)
Average77 °F74%30.03 "Hg
* Reported Apr 10 11:00 PM — Apr 25 11:00 PM, Pirassununga, Weather by CustomWeather, © 2015

Note: Actual official high and low records may vary slightly from our data, if they occured in-between our weather recording intervals... More about our weather records

Advertising

Pirassununga weather history for previous 24 hours

 ConditionsComfort  
Time TempWeatherWind HumidityBarometerVisibility
11:00 PM
Sat, Apr 25
63 °FClear.9 mph88%30.15 "Hg10 mi
10:00 PM64 °FClear.7 mph83%30.15 "Hg10 mi
9:00 PM68 °FClear.13 mph73%30.12 "Hg10 mi
8:00 PM70 °FClear.12 mph69%30.09 "Hg10 mi
7:00 PM70 °FClear.7 mph69%30.07 "Hg10 mi
6:00 PM73 °FClear.6 mph61%30.07 "Hg10 mi
5:00 PM79 °FClear.12 mph48%30.04 "Hg10 mi
4:00 PM82 °FSunny.12 mph45%30.04 "Hg10 mi
3:00 PM84 °FSunny.12 mph45%30.07 "Hg10 mi
2:00 PM82 °FScattered clouds.14 mph48%30.07 "HgN/A
1:00 PM82 °FScattered clouds.9 mph51%30.09 "HgN/A
12:00 PM81 °FPassing clouds.10 mph54%30.09 "HgN/A
11:00 AM79 °FPassing clouds.13 mph61%30.15 "HgN/A
10:00 AM77 °FPassing clouds.12 mph65%30.15 "HgN/A
9:00 AM73 °FClear.10 mph74%30.15 "Hg5 mi
8:00 AM70 °FClear.9 mph88%30.12 "Hg4 mi
7:00 AM66 °FFog.8 mph94%30.09 "Hg3 mi
6:00 AM66 °FFog.8 mph94%30.09 "Hg3 mi
Weather by CustomWeather, © 2015

See weather overviewHow to use our weather pages